Regional Weather Roundup
Issued by NWS Bismarck, ND

Home | Current Version | Previous Version | Text Only | Print | Product List | Glossary On
Versions: 1 2 3 4 5 6 7 8 9 10 11 12 13 14 15 16 17 18 19 20 21 22 23 24 25 26 27 28 29 30 31 32 33 34 35 36 37 38 39 40 41 42 43 44 45 46 47 48 49 50
000
ASUS43 KBIS 311159
RWRBIS

NWR BROADCAST TEXT
NATIONAL WEATHER SERVICE BISMARCK ND
700 AM CDT THU JUL 31 2014

NOTE: "FAIR" INDICATES FEW OR NO CLOUDS BELOW 12,000 FEET WITH NO
SIGNIFICANT WEATHER AND/OR OBSTRUCTIONS TO VISIBILITY.


CITY           SKY/WX    TMP DP  RH WIND       PRES   REMARKS
WILLISTON      CLOUDY    62  60  93 CALM      30.09R
MINOT          PTCLDY    57  53  86 SW9       30.08S
MINOT AFB      NOT AVBL
BISMARCK       PTCLDY    55  53  93 CALM      30.10S
DICKINSON      NOT AVBL
GARRISON         N/A     56  55  97 CALM      30.10R
HETTINGER ARPT PTCLDY    53  51  93 MISG      30.15S FOG
JAMESTOWN      NOT AVBL
CROSBY           N/A     57  57 100 S5        30.08F
HARVEY         FAIR      54  54 100 CALM      30.09S FOG
HAZEN          FAIR      54  52  94 S5        30.11S FOG
LINTON         FAIR      54  54 100 E6        30.10S
MANDAN         FAIR      57  55  94 CALM      30.11S
RUGBY          FAIR      55  55 100 CALM      30.08F
WATFORD CITY   FAIR      59  59 100 SW7       30.09S
$$

CITY           SKY/WX    TMP DP  RH WIND       PRES   REMARKS
GRAND FORKS    PTCLDY    59  57  93 W7        30.03S
GRAND FORKS AF NOT AVBL
DEVILS LAKE    CLEAR     61  54  77 CALM      30.07S
FARGO          CLEAR     56  53  90 CALM      30.04S
CAVALIER       FAIR      59  57  94 W5        30.04S
GRAFTON        FAIR      61  59  94 NW6       30.04R
GWINNER        PTSUNNY   59  57  94 W6        30.08S
LANGDON        FAIR      50  50 100 CALM      30.08S FOG
$$

CITY           SKY/WX    TMP DP  RH WIND       PRES   REMARKS
ABERDEEN       PTCLDY    54  52  93 W3        30.09S
MOBRIDGE       CLEAR     60  53  77 E10       30.07F
RAPID CITY     CLEAR     57  46  66 NW10      30.17R
GLASGOW        CLEAR     66  47  50 SE16      30.05F
SIDNEY         CLOUDY    63  55  77 N6        30.11R
WOLF POINT     PTCLDY    68  49  50 S5        30.08R
GLENDIVE       PTCLDY    61  48  63 S8        30.15F
MILES CITY     CLEAR     63  48  58 NE8       30.11R
BAKER          PTCLDY    53  50  89 SE5       30.19R
$$

CITY           SKY/WX    TMP DP  RH WIND       PRES   REMARKS
BILLINGS       PTCLDY    64  39  39 SW10      30.14R
GREAT FALLS    CLEAR     61  43  51 S12       30.14R
$$




USA.gov is the U.S. government's official web portal to all federal, state and local government web resources and services.